Location: Altenst�hlen
(53.5567°N, 8.9425°E)
Time: 00:56:28
(UTC+00:00)

H-2A R/B - Pass Details

Date: 23 October 2019
Orbit: 734 x 837 km, 98.3° (Epoch: 14 November)

Event Time Altitude Azimuth Distance (km) Brightness Sun altitude
Exits shadow 19:21:20 73° 230° (SW) 871 2.2 -28.6°
Maximum altitude 19:21:35 75° 256° (WSW) 866 2.2 -28.7°
Drops below altitude 10° 19:27:04 10° 342° (NNW) 2,462 5.1 -29.4°
Sets 19:29:28 0° 345° (NNW) 3,403 5.8 -29.8°
